Torna al catalogo

MOLNIYA 1-75

AttivoComunicazioniHEO
NORAD 19807·PAYLOAD·🇷🇺 Russia

Lanciato Feb 15, 1989 da Baikonur Cosmodrome

Loading…

Prossimi Passaggi (prossime 24 ore)

TLE

In scadenzaSource: Space-Track

Epoca: Aug 31, 2026, 00:09 UTC

1 19807U 89014A   26243.00667433 -.00000201  00000-0  00000-0 0  9997
2 19807  63.8050 131.3278 6870140 255.2837  24.9310  2.00550399274782

Traccia MOLNIYA 1-75 in tempo reale con AllMySat

Download on the App Store